DateTimeUTC,F1_A11,F1_S11,BsB_S11,BsG_S11,BsR_S11,BbsB_S11,BbsG_S11,BbsR_S11,BaB_A11,BaG_A11,BaR_A11,Tu_S11,T_S11,Uu_S11,U_S11,P_S11,T1_A11
2021-03-13T22:00:00Z,00000200,21000000,,,,,,,0000.08,-000.44,-000.44,16.1,24.1,,00.0,0638.5,30.9
2021-03-13T22:01:00Z,00000200,21000000,,,,,,,-000.52,-000.19,-000.02,16.1,24.2,,00.0,0638.5,30.9
2021-03-13T22:02:00Z,00000200,21000000,,,,,,,0000.00,0000.17,0000.02,16.1,24.2,,00.0,0638.5,30.9
2021-03-13T22:03:00Z,00000200,61000000,,,,,,,0000.04,-000.05,-000.06,16.2,24.2,,00.0,0638.5,30.9
2021-03-13T22:04:00Z,00000200,41000000,0001.18,0000.52,0000.60,0000.47,0000.10,0000.31,0000.31,0000.22,0000.02,16.7,24.1,,00.0,0639.4,30.9
2021-03-13T22:05:00Z,00000200,01000000,0000.94,0000.22,0000.52,0000.82,0000.07,0000.16,0000.32,0000.29,0000.31,16.8,24.1,,00.0,0639.5,30.9
2021-03-13T22:06:00Z,00000200,01000000,0000.44,0000.58,0000.28,0000.22,-000.07,0000.07,0000.43,0000.30,0000.38,16.8,24.1,,00.0,0639.5,30.9
2021-03-13T22:07:00Z,00000200,01000000,0001.25,0000.32,0000.01,0000.46,0000.04,0000.09,0000.08,0000.20,0000.32,16.8,24.1,,00.0,0639.5,30.9
2021-03-13T22:08:00Z,00000200,01000000,0000.46,0000.58,0000.38,0000.18,0000.26,0000.27,0000.23,0000.40,-000.02,16.8,24.1,,00.0,0639.5,30.9
2021-03-13T22:09:00Z,00000200,01000000,0000.16,0000.51,0000.57,0000.61,0000.15,0000.23,0000.18,-000.04,0000.24,16.7,24.1,,00.0,0639.5,30.9
2021-03-13T22:10:00Z,00000200,01000000,0000.49,0000.31,0000.57,0000.28,-000.15,0000.14,0000.14,-000.01,-000.03,16.7,24.0,,00.0,0639.5,30.9
2021-03-13T22:11:00Z,00000200,01000000,-000.09,0000.21,0000.48,0000.38,0000.06,0000.18,0000.00,0000.25,-000.09,16.6,24.0,,00.0,0639.5,30.9
2021-03-13T22:12:00Z,00000200,01000000,0000.40,0000.09,0000.46,0000.28,-000.10,0000.40,0000.68,0000.15,0000.50,16.6,24.0,,00.0,0639.6,30.9
2021-03-13T22:13:00Z,00000200,01000000,0000.64,0000.54,0000.40,0000.45,-000.08,0000.12,-000.04,0000.39,-000.03,16.6,24.0,,00.0,0639.6,30.9
2021-03-13T22:14:00Z,00000200,01000000,0000.19,0000.47,0000.45,-000.35,0000.18,0000.11,-000.03,0000.09,0000.06,16.7,24.0,,00.0,0639.6,30.9
2021-03-13T22:15:00Z,00000200,01000000,0000.50,0000.49,0000.40,0000.67,0000.27,0000.36,0000.37,0000.08,0000.31,16.8,24.0,,00.0,0639.6,30.9
2021-03-13T22:16:00Z,00000200,01000000,0000.82,0000.43,0000.43,0000.14,0000.10,0000.14,0000.27,-000.01,0000.20,16.8,24.0,,00.0,0639.6,30.9
2021-03-13T22:17:00Z,00000200,01000000,0000.09,0000.39,0000.25,-000.01,0000.01,0000.18,0000.61,0000.80,0000.33,16.9,24.1,,00.0,0639.6,30.9
2021-03-13T22:18:00Z,00000200,01000000,0000.44,0000.33,0000.40,-000.05,-000.02,0000.08,0000.09,0000.35,0000.11,17.0,24.1,,00.0,0639.6,30.9
2021-03-13T22:19:00Z,00000200,01000000,0000.21,0000.16,0000.43,-000.12,-000.01,0000.42,0000.32,-000.07,-000.03,17.1,24.2,,00.0,0639.6,31.0
2021-03-13T22:20:00Z,00000200,01000000,0000.11,0000.43,0000.15,-000.06,-000.07,0000.17,0000.29,0000.60,0000.34,17.1,24.2,,00.0,0639.6,31.0
2021-03-13T22:21:00Z,00000200,01000000,0000.09,0000.50,0000.52,0000.18,-000.18,0000.44,-000.07,-000.05,-000.04,17.1,24.2,,00.0,0639.6,30.9
2021-03-13T22:22:00Z,00000200,01000000,0000.44,0000.41,0000.21,0000.01,0000.15,-000.02,0000.66,0000.30,0000.38,17.1,24.1,,00.0,0639.6,30.9
2021-03-13T22:23:00Z,00000200,01000000,0000.91,0000.21,0000.10,-000.08,0000.14,0000.05,0000.41,0000.41,0000.19,17.0,24.1,,00.0,0639.6,30.9
2021-03-13T22:24:00Z,00000200,01000000,0001.11,0000.43,0000.22,0000.21,0000.11,0000.16,-000.08,0000.10,-000.20,17.0,24.1,,00.0,0639.6,30.9
2021-03-13T22:25:00Z,00000200,01000000,0000.89,0000.34,0000.30,0000.30,0000.08,0000.06,0000.18,-000.31,0000.26,16.9,24.1,,00.0,0639.6,30.9
2021-03-13T22:26:00Z,00000200,01000000,0000.97,0000.22,0000.36,0000.63,0000.01,0000.30,-000.12,0000.00,-000.13,16.8,24.1,,00.0,0639.6,30.9
2021-03-13T22:27:00Z,00000200,01000000,0000.10,0000.38,0000.49,0000.37,-000.17,0000.33,-000.22,-000.17,0000.11,16.8,24.0,,00.0,0639.6,30.9
2021-03-13T22:28:00Z,00000200,01000000,0001.00,0000.40,0000.50,0000.36,0000.07,0000.28,0000.22,0000.33,-000.03,16.8,24.0,,00.0,0639.6,30.9
2021-03-13T22:29:00Z,00000200,01000000,0000.34,0000.58,0000.42,0000.13,0000.11,0000.31,0000.11,0000.35,0000.02,16.9,24.0,,00.0,0639.6,30.9
2021-03-13T22:30:00Z,00000200,01000000,0000.71,0000.41,0000.72,0000.41,0000.02,-000.01,0000.19,-000.06,0000.16,17.0,24.1,,00.0,0639.6,30.9
2021-03-13T22:31:00Z,00000200,01000000,0000.35,0000.13,0000.33,0000.19,0000.05,0000.16,-000.31,-000.01,0000.15,17.0,24.1,,00.0,0639.6,30.9
2021-03-13T22:32:00Z,00000200,01000000,0000.29,0000.46,0000.22,0000.03,-000.01,-000.05,0000.46,0000.37,-000.01,17.0,24.1,,00.0,0639.6,30.9
2021-03-13T22:33:00Z,00000200,01000000,0000.75,0000.54,0000.38,-000.13,-000.17,0000.38,-000.24,-000.15,0000.05,17.0,24.1,,00.0,0639.6,30.9
2021-03-13T22:34:00Z,00000200,01000000,-000.08,0000.36,0000.47,-000.30,-000.03,0000.10,0000.28,-000.07,0000.01,16.9,24.1,,00.0,0639.7,30.9
2021-03-13T22:35:00Z,00000200,01000000,0000.00,0000.52,0000.40,0000.10,-000.22,0000.20,-000.21,-000.01,-000.04,16.9,24.1,,00.0,0639.7,30.9
2021-03-13T22:36:00Z,00000200,01000000,-000.01,0000.59,0000.14,0000.10,-000.28,0000.10,0000.54,0000.05,0000.31,16.8,24.0,,00.0,0639.7,30.9
2021-03-13T22:37:00Z,00000200,01000000,0000.38,0000.33,0000.29,-000.38,0000.09,0000.23,-000.08,0000.17,-000.30,16.7,24.0,,00.0,0639.7,30.9
2021-03-13T22:38:00Z,00000200,01000000,0000.37,0000.26,0000.30,0000.69,0000.10,0000.08,0000.11,0000.30,0000.13,16.7,24.0,,00.0,0639.7,30.9
2021-03-13T22:39:00Z,00000200,01000000,0001.25,0000.47,0000.18,0000.12,-000.06,0000.40,0000.29,0000.28,0000.43,16.6,23.9,,00.0,0639.7,30.9
2021-03-13T22:40:00Z,00000200,01000000,0000.81,0000.61,0000.20,0000.17,-000.01,-000.24,0000.18,-000.07,0000.26,16.6,23.9,,00.0,0639.7,30.8
2021-03-13T22:41:00Z,00000200,01000000,0000.34,0000.37,0000.32,0000.03,0000.19,0000.21,-000.15,-000.07,-000.42,16.5,23.9,,00.0,0639.7,30.8
2021-03-13T22:42:00Z,00000200,01000000,0000.61,0000.39,0000.26,-000.10,-000.18,-000.02,0000.51,0000.35,0000.67,16.5,23.8,,00.0,0639.7,30.8
2021-03-13T22:43:00Z,00000200,01000000,0000.52,0000.78,0000.34,0000.38,0000.23,0000.17,0000.43,0000.17,0000.18,16.5,23.8,,00.0,0639.7,30.9
2021-03-13T22:44:00Z,00000200,01000000,0001.21,0000.49,0000.38,0000.33,0000.12,0000.25,0000.04,0000.13,0000.02,16.6,23.9,,00.0,0639.7,30.9
2021-03-13T22:45:00Z,00000200,01000000,0001.20,0000.37,0000.27,0000.66,0000.04,0000.22,0000.09,0000.28,0000.15,16.7,23.9,,00.0,0639.7,30.9
2021-03-13T22:46:00Z,00000200,01000000,0000.07,0000.29,0000.25,0000.12,0000.09,0000.14,0000.42,0000.76,0000.19,16.8,23.9,,00.0,0639.7,30.9
2021-03-13T22:47:00Z,00000200,01000000,0000.56,0000.22,0000.30,-000.16,0000.09,0000.32,0000.05,-000.40,0000.23,16.8,23.9,,00.0,0639.7,30.9
2021-03-13T22:48:00Z,00000200,01000000,0001.12,0000.33,0000.19,-000.01,0000.11,0000.15,0000.31,0000.50,-000.14,16.8,23.9,,00.0,0639.7,30.9
2021-03-13T22:49:00Z,00000200,01000000,0000.78,0000.43,0000.16,-000.02,0000.05,0000.14,-000.14,-000.21,0000.13,16.8,23.9,,00.0,0639.7,30.9
2021-03-13T22:50:00Z,00000200,01000000,0001.07,0000.41,0000.53,0000.14,0000.04,0000.15,0000.35,0000.05,-000.06,16.7,23.9,,00.0,0639.7,30.9
2021-03-13T22:51:00Z,00000200,01000000,0000.68,0000.57,0000.41,0000.52,-000.11,0000.21,-000.09,0000.50,0000.08,16.6,23.9,,00.0,0639.8,30.9
2021-03-13T22:52:00Z,00000200,01000000,0000.46,0000.48,0000.44,0000.07,0000.07,0000.15,0000.40,0000.01,0000.20,16.6,23.8,,00.0,0639.8,30.9
2021-03-13T22:53:00Z,00000200,01000000,0000.18,0000.77,0000.40,0000.44,-000.16,0000.06,-000.05,0000.30,0000.10,16.5,23.8,,00.0,0639.8,30.8
2021-03-13T22:54:00Z,00000200,01000000,-000.14,0000.80,0000.52,0000.77,-000.29,0000.28,0000.37,-000.09,0000.13,16.4,23.8,,00.0,0639.8,30.8
2021-03-13T22:55:00Z,00000200,01000000,0000.55,0000.51,0000.37,0000.30,0000.10,0000.40,0000.18,0000.33,0000.08,16.4,23.7,,00.0,0639.8,30.8
2021-03-13T22:56:00Z,00000200,01000000,0000.22,0000.43,0000.51,0000.14,0000.15,0000.36,-000.02,-000.22,0000.21,16.3,23.7,,00.0,0639.8,30.8
2021-03-13T22:57:00Z,00000200,41000000,,,,,,,0000.61,0001.16,0000.07,16.4,23.7,,00.0,0639.7,30.8
2021-03-13T22:58:00Z,00000200,61000000,,,,,,,0000.30,-000.36,0000.48,16.0,23.9,,00.0,0638.9,30.8
2021-03-13T22:59:00Z,00000200,21000000,,,,,,,-000.06,0000.26,-000.10,16.0,24.0,,00.0,0638.9,30.9
